Regional Weather Roundup
Issued by NWS Cleveland, OH

Home | Current Version | Previous Version | Graphics & Text | Print | Product List | Glossary On
Versions: 1 2 3 4 5 6 7 8 9 10 11 12 13 14 15 16 17 18 19 20 21 22 23 24 25 26 27 28 29 30 31 32 33 34 35 36 37 38 39 40 41 42 43 44 45 46 47 48 49 50
000
ASUS41 KCLE 042010
RWRCLE
OHIO REGIONAL WEATHER ROUNDUP
NATIONAL WEATHER SERVICE CLEVELAND, OH
400 PM EDT MON MAY 04 2015

NOTE: "FAIR" INDICATES FEW OR NO CLOUDS BELOW 12,000 FEET WITH NO
SIGNIFICANT WEATHER AND/OR OBSTRUCTIONS TO VISIBILITY.

OHZ001>008-015>018-024>027-034-035-043-044-042100-
   NORTHWEST OHIO

CITY           SKY/WX    TMP DP  RH WIND       PRES   REMARKS
DEFIANCE       PTSUNNY   71  60  68 SW12      30.14S
FINDLAY        LGT RAIN  67  59  75 W7        30.15R
TOLEDO EXPRESS CLOUDY    68  60  75 SW10      30.12S
TOLEDO EXEC    LGT RAIN  67  59  75 SW14      30.13R
LIMA           LGT RAIN  66  60  81 CALM      30.16R
$$

OHZ009>014-019>023-028>033-038-089-042100-
   NORTHEAST OHIO

CITY           SKY/WX    TMP DP  RH WIND       PRES   REMARKS
CLE-HOPKINS    LGT RAIN  71  57  61 W13G22    30.15R
CLE-LAKEFRONT  CLOUDY    58  52  80 W9        30.13R
CUY CO. ARPT   CLOUDY    68  57  68 NW14G23   30.15R
LORAIN-ELYRIA  LGT RAIN  71  56  58 W18G26    30.15R
ASHTABULA      CLOUDY    71  53  52 W13       30.14R
AKRON-CANTON   CLOUDY    79  49  34 SW15      30.13F
WOOSTER        CLOUDY    76  53  44 W15       30.14S
MANSFIELD      LGT RAIN  72  54  53 W15       30.16S
YOUNGSTOWN     CLOUDY    79  46  31 SW17G25   30.12F
$$

OHZ042-051>053-060>062-070>072-077>081-042100-
  SOUTHWEST OHIO

CITY           SKY/WX    TMP DP  RH WIND       PRES   REMARKS
CINC-COVINGTON CLOUDY    78  55  44 SW5       30.17F
CINC-LUNKEN    CLOUDY    79  58  48 SW10      30.16F
HAMILTON       LGT RAIN  78  56  46 SW6       30.17F
DAYTON         LGT RAIN  70  59  68 SW8       30.18S
WRIGHT-PAT AFB LGT RAIN  72  59  64 SW8       30.17R
DAYTON GENERAL LGT RAIN  74  56  53 SW7       30.16F
WILMINGTON     CLOUDY    76  53  44 W10       30.17S
$$

OHZ036-037-039>041-045>050-054>059-063>069-073>076-082>088-042100-
  CENTRAL AND SOUTHEAST OHIO

CITY           SKY/WX    TMP DP  RH WIND       PRES   REMARKS
COLUMBUS       CLOUDY    79  52  38 W12       30.14F
OSU AIRPORT    CLOUDY    78  54  43 W12       30.15S
BOLTON FIELD   CLOUDY    77  55  47 SW18      30.16S
RICKENBACK AFB CLOUDY    78  53  41 W14G20    30.15S
NEWARK         MOSUNNY   78  53  41 SW13      30.14F
MARION         LGT RAIN  71  56  58 W8        30.16S
LANCASTER      PTSUNNY   80  53  39 SW12G20   30.16F
ZANESVILLE     MOSUNNY   80  48  32 W10G18    30.16F
NEW PHILLY     PTSUNNY   83  48  29 W13G21    30.15F
$$


USA.gov is the U.S. government's official web portal to all federal, state and local government web resources and services.